When you browse on this site, cookies collect data to enhance your experience and personalize the content and advertising you see.
Visit our Privacy Policy to learn more. By continuing to use the site, you agree to this use of cookies and data.
  • In Hungary
  • List of Countries
  • For 7 days
  • Water Temperature
  • Satellite Maps
  • Weather Map
  • News
  • Weather Widgets
  • user-avatar
    Login

    Hourly Weather Asunción

    Today, 21 January, Monday

    Time Temperature Precipitation Wind Pressure Humidity
    00:00 +24°C° 0 mm 1 mps 753 mmHg 68%
    01:00 +23°C° 0 mm 1 mps 753 mmHg 70%
    02:00 +23°C° 0 mm 1 mps 753 mmHg 73%
    03:00 +23°C° 0 mm 1 mps 753 mmHg 75%
    04:00 +22°C° 0 mm 1 mps 754 mmHg 77%
    05:00 +22°C° 0 mm 1 mps 754 mmHg 79%
    06:00 +25°C° 0 mm 1 mps 754 mmHg 69%
    07:00 +28°C° 0 mm 1 mps 754 mmHg 59%
    08:00 +30°C° 0 mm 1 mps 755 mmHg 50%
    09:00 +33°C° 0 mm 1 mps 755 mmHg 43%
    10:00 +35°C° 0 mm 1 mps 755 mmHg 36%
    11:00 +39°C° 0 mm 1 mps 754 mmHg 28%
    12:00 +40°C° 0 mm 1 mps 754 mmHg 27%
    13:00 +42°C° 0 mm 1 mps 753 mmHg 25%
    14:00 +40°C° 0 mm 0 mps 752 mmHg 23%
    15:00 +39°C° 0 mm 0 mps 752 mmHg 23%
    16:00 +38°C° 0 mm 0 mps 751 mmHg 24%
    17:00 +37°C° 0 mm 0 mps 751 mmHg 25%
    18:00 +37°C° 0 mm 1 mps 751 mmHg 30%
    19:00 +34°C° 0 mm 1 mps 751 mmHg 36%
    20:00 +32°C° 0 mm 2 mps 751 mmHg 41%
    21:00 +31°C° 0 mm 2 mps 752 mmHg 44%
    22:00 +30°C° 0 mm 2 mps 752 mmHg 46%
    23:00 +30°C° 0 mm 2 mps 753 mmHg 49%

    Tomorrow, 22 January, Tuesday

    Time Temperature Precipitation Wind Pressure Humidity
    00:00 +29°C° 0 mm 2 mps 752 mmHg 51%
    01:00 +29°C° 0 mm 2 mps 752 mmHg 53%
    02:00 +28°C° 0 mm 2 mps 752 mmHg 55%
    03:00 +28°C° 0 mm 2 mps 752 mmHg 58%
    04:00 +27°C° 0 mm 2 mps 752 mmHg 60%
    05:00 +27°C° 0 mm 1 mps 752 mmHg 63%
    06:00 +29°C° 0 mm 2 mps 753 mmHg 56%
    07:00 +32°C° 0 mm 2 mps 753 mmHg 50%
    08:00 +35°C° 0 mm 3 mps 754 mmHg 44%
    09:00 +38°C° 0 mm 3 mps 753 mmHg 38%
    10:00 +40°C° 0 mm 3 mps 753 mmHg 32%
    11:00 +44°C° 0 mm 3 mps 753 mmHg 26%
    12:00 +44°C° 0 mm 3 mps 752 mmHg 25%
    13:00 +44°C° 0 mm 3 mps 751 mmHg 24%
    14:00 +45°C° 0 mm 3 mps 751 mmHg 23%
    15:00 +44°C° 0 mm 3 mps 750 mmHg 24%
    16:00 +44°C° 0 mm 3 mps 750 mmHg 25%
    17:00 +44°C° 0 mm 3 mps 749 mmHg 25%
    18:00 +42°C° 0 mm 3 mps 749 mmHg 29%
    19:00 +39°C° 0 mm 3 mps 750 mmHg 33%
    20:00 +37°C° 0 mm 2 mps 750 mmHg 36%
    21:00 +36°C° 0 mm 3 mps 751 mmHg 38%
    22:00 +36°C° 0 mm 3 mps 751 mmHg 39%
    23:00 +35°C° 0 mm 3 mps 752 mmHg 41%

    Day after tomorrow, 23 January, Wednesday

    Time Temperature Precipitation Wind Pressure Humidity
    00:00 +35°C° 0 mm 3 mps 751 mmHg 43%
    01:00 +34°C° 0 mm 3 mps 751 mmHg 45%
    02:00 +32°C° 0 mm 2 mps 751 mmHg 48%
    03:00 +32°C° 0 mm 2 mps 751 mmHg 50%
    04:00 +31°C° 0 mm 2 mps 752 mmHg 53%
    05:00 +31°C° 0 mm 2 mps 752 mmHg 56%
    06:00 +34°C° 0 mm 3 mps 752 mmHg 52%
    07:00 +35°C° 0 mm 3 mps 753 mmHg 47%
    08:00 +37°C° 0 mm 3 mps 753 mmHg 43%
    09:00 +40°C° 0 mm 3 mps 753 mmHg 37%
    10:00 +43°C° 0 mm 3 mps 753 mmHg 31%
    11:00 +46°C° 0 mm 3 mps 753 mmHg 25%
    12:00 +45°C° 0 mm 2 mps 752 mmHg 26%
    13:00 +44°C° 0 mm 1 mps 751 mmHg 26%
    14:00 +44°C° 0 mm 1 mps 751 mmHg 26%
    15:00 +43°C° 0 mm 1 mps 750 mmHg 27%
    16:00 +42°C° 0 mm 1 mps 749 mmHg 29%
    17:00 +42°C° 0 mm 1 mps 749 mmHg 31%
    18:00 +40°C° 0 mm 1 mps 749 mmHg 34%
    19:00 +39°C° 0 mm 2 mps 750 mmHg 36%
    20:00 +37°C° 0 mm 2 mps 750 mmHg 39%
    21:00 +37°C° 0 mm 2 mps 750 mmHg 40%
    22:00 +36°C° 0 mm 2 mps 751 mmHg 41%
    23:00 +36°C° 0 mm 2 mps 751 mmHg 43%

    24 January, Thursday

    Time Temperature Precipitation Wind Pressure Humidity
    00:00 +35°C° 0 mm 2 mps 751 mmHg 44%
    01:00 +35°C° 0 mm 2 mps 750 mmHg 45%
    02:00 +35°C° 0 mm 2 mps 750 mmHg 46%
    03:00 +34°C° 0 mm 2 mps 750 mmHg 50%
    04:00 +32°C° 0 mm 1 mps 750 mmHg 54%
    05:00 +31°C° 0 mm 1 mps 751 mmHg 57%
    06:00 +32°C° 0.1 mm 1 mps 751 mmHg 57%
    07:00 +34°C° 0.1 mm 2 mps 752 mmHg 57%
    08:00 +35°C° 0.1 mm 2 mps 752 mmHg 56%
    09:00 +37°C° 0 mm 2 mps 752 mmHg 48%
    10:00 +40°C° 0 mm 2 mps 752 mmHg 40%
    11:00 +43°C° 0 mm 2 mps 752 mmHg 32%
    12:00 +43°C° 0 mm 2 mps 751 mmHg 31%
    13:00 +43°C° 0 mm 1 mps 750 mmHg 30%
    14:00 +43°C° 0 mm 1 mps 749 mmHg 29%
    15:00 +42°C° 0 mm 1 mps 749 mmHg 32%
    16:00 +41°C° 0 mm 1 mps 749 mmHg 36%
    17:00 +39°C° 0 mm 2 mps 748 mmHg 39%
    18:00 +37°C° 0 mm 1 mps 749 mmHg 42%
    19:00 +35°C° 0 mm 1 mps 749 mmHg 45%
    20:00 +32°C° 0 mm 0 mps 749 mmHg 48%
    21:00 +34°C° 0 mm 1 mps 749 mmHg 49%
    22:00 +33°C° 0 mm 1 mps 750 mmHg 50%
    23:00 +33°C° 0 mm 1 mps 750 mmHg 51%

    25 January, Friday

    Time Temperature Precipitation Wind Pressure Humidity
    00:00 +34°C° 0 mm 2 mps 749 mmHg 52%
    01:00 +32°C° 0 mm 2 mps 749 mmHg 54%
    02:00 +32°C° 0 mm 2 mps 749 mmHg 55%
    03:00 +32°C° 0 mm 2 mps 749 mmHg 56%
    04:00 +31°C° 0 mm 2 mps 749 mmHg 57%
    05:00 +31°C° 0 mm 2 mps 749 mmHg 58%
    06:00 +34°C° 0 mm 2 mps 749 mmHg 54%
    07:00 +36°C° 0 mm 3 mps 750 mmHg 50%
    08:00 +37°C° 0 mm 3 mps 750 mmHg 46%
    09:00 +40°C° 0 mm 3 mps 750 mmHg 40%
    10:00 +43°C° 0 mm 4 mps 749 mmHg 33%
    11:00 +45°C° 0 mm 4 mps 749 mmHg 27%
    12:00 +46°C° 0 mm 3 mps 748 mmHg 26%
    13:00 +46°C° 0 mm 3 mps 747 mmHg 24%
    14:00 +47°C° 0 mm 2 mps 747 mmHg 22%
    15:00 +46°C° 0 mm 2 mps 746 mmHg 24%
    16:00 +43°C° 0 mm 1 mps 746 mmHg 26%
    17:00 +42°C° 0 mm 1 mps 746 mmHg 28%
    18:00 +41°C° 0 mm 1 mps 746 mmHg 31%
    19:00 +39°C° 0 mm 1 mps 747 mmHg 34%
    20:00 +37°C° 0 mm 1 mps 747 mmHg 37%
    21:00 +38°C° 0 mm 2 mps 747 mmHg 37%
    22:00 +37°C° 0 mm 2 mps 748 mmHg 38%
    23:00 +37°C° 0 mm 3 mps 748 mmHg 39%

    26 January, Saturday

    Time Temperature Precipitation Wind Pressure Humidity
    00:00 +37°C° 0 mm 3 mps 748 mmHg 41%
    01:00 +36°C° 0 mm 3 mps 748 mmHg 43%
    02:00 +36°C° 0 mm 4 mps 748 mmHg 46%
    03:00 +35°C° 0 mm 4 mps 749 mmHg 48%
    04:00 +35°C° 0 mm 4 mps 749 mmHg 51%
    05:00 +34°C° 0 mm 4 mps 749 mmHg 54%
    06:00 +34°C° 0.2 mm 4 mps 750 mmHg 54%
    07:00 +35°C° 0.2 mm 4 mps 751 mmHg 55%
    08:00 +35°C° 0.2 mm 4 mps 752 mmHg 56%
    09:00 +38°C° 0 mm 4 mps 751 mmHg 49%
    10:00 +40°C° 0 mm 3 mps 751 mmHg 41%
    11:00 +43°C° 0 mm 3 mps 751 mmHg 34%
    12:00 +42°C° 0 mm 2 mps 750 mmHg 33%
    13:00 +43°C° 0 mm 2 mps 749 mmHg 31%
    14:00 +43°C° 0 mm 1 mps 749 mmHg 30%
    15:00 +42°C° 0 mm 2 mps 748 mmHg 32%
    16:00 +41°C° 0 mm 2 mps 748 mmHg 34%
    17:00 +40°C° 0 mm 2 mps 748 mmHg 36%
    18:00 +39°C° 0 mm 3 mps 748 mmHg 37%
    19:00 +38°C° 0 mm 4 mps 749 mmHg 38%
    20:00 +37°C° 0 mm 4 mps 749 mmHg 40%
    21:00 +36°C° 0 mm 3 mps 750 mmHg 41%
    22:00 +35°C° 0 mm 2 mps 750 mmHg 42%
    23:00 +34°C° 0 mm 2 mps 751 mmHg 43%
    Show more